GW2041 Weather Reports


Display with metric or nautical units.
time (UTC)temp
F
wind
direction
speed
MPH
gust
MPH
rain 1hr
in
rain 24hr
in
rain mn
in
humidity
%
barometer
mb
20260504041237 54 180 0.0 2.0 0.00 0.00 0.00 96 1010.5
20260504040242 54 248 1.0 3.0 0.00 0.00 0.00 96 1010.5
20260504035237 54 180 1.0 3.0 0.00 0.00 0.00 96 1010.5
20260504034237 54 158 1.0 3.0 0.00 0.00 0.00 96 1010.5
20260504033226 54 180 0.0 0.0 0.00 0.00 0.00 96 1010.6
20260504032708 54 225 0.0 0.0 0.00 0.00 0.00 96 1010.6
20260504031222 54 180 1.0 2.0 0.00 0.00 0.00 96 1010.4
20260504030228 54 180 1.0 3.0 0.00 0.00 0.00 96 1010.4
20260504025223 55 180 0.0 1.0 0.00 0.00 0.00 96 1010.3
20260504024225 55 158 0.0 0.0 0.00 0.00 0.00 96 1010.3
20260504023228 55 180 0.0 0.0 0.00 0.00 0.00 95 1010.1
20260504022223 55 248 0.0 2.0 0.00 0.00 0.00 95 1010.1
20260504021225 56 225 0.0 3.0 0.00 0.00 0.00 96 1010.3
20260504020222 55 180 0.0 0.0 0.00 0.00 0.00 95 1010.3
20260504015450 55 180 0.0 0.0 0.00 0.00 0.00 95 1010.3
20260504013953 55 180 0.0 0.0 0.00 0.00 0.00 95 1010.1
20260504012953 55 180 0.0 0.0 0.00 0.00 0.00 95 1010.1
20260504011955 55 203 0.0 2.0 0.00 0.00 0.00 95 1010.5
20260504011433 56 180 0.0 2.0 0.00 0.00 0.00 95 1010.5
20260504010442 56 248 0.0 1.0 0.00 0.00 0.00 95 1010.3
20260504004946 56 248 0.0 2.0 0.00 0.00 0.00 95 1010.3
20260504003939 56 225 1.0 2.0 0.00 0.00 0.00 95 1010.7
20260504002940 56 225 1.0 3.0 0.00 0.00 0.00 95 1010.7
20260504001939 56 203 2.0 5.0 0.00 0.00 0.00 95 1010.6
20260504000939 57 180 3.0 5.0 0.00 0.00 0.00 95 1010.6
20260503235924 57 158 1.0 4.0 0.00 0.00 0.00 95 1010.6
20260503234929 56 248 1.0 3.0 0.00 0.00 0.00 95 1010.6
20260503233925 57 180 2.0 4.0 0.00 0.00 0.00 95 1011.0
20260503232923 56 248 0.0 4.0 0.00 0.00 0.00 95 1011.0
20260503231926 56 248 1.0 3.0 0.00 0.00 0.00 94 1011.0
20260503230922 56 203 0.0 2.0 0.00 0.00 0.00 94 1011.0
20260503225923 56 180 0.0 1.0 0.00 0.00 0.00 94 1010.9
20260503224928 57 270 0.0 2.0 0.00 0.00 0.00 94 1010.9
20260503223923 57 248 0.0 2.0 0.00 0.00 0.00 94 1011.0
20260503222925 57 270 1.0 2.0 0.00 0.00 0.00 94 1011.0
20260503221926 58 180 0.0 3.0 0.00 0.00 0.00 94 1011.0
20260503220919 58 180 1.0 1.0 0.00 0.00 0.00 94 1011.0
20260503215911 58 225 1.0 2.0 0.00 0.00 0.24 94 1011.0
20260503214918 58 180 0.0 2.0 0.00 0.00 0.24 94 1011.0
20260503213912 58 225 0.0 1.0 0.00 0.00 0.24 94 1011.1
20260503213351 58 180 0.0 2.0 0.00 0.00 0.24 94 1011.1
20260503211918 58 180 0.0 0.0 0.00 0.00 0.24 94 1011.0
20260503210915 58 158 0.0 2.0 0.00 0.00 0.24 94 1011.0
20260503205916 57 225 0.0 2.0 0.00 0.00 0.24 94 1010.8
20260503204012 57 248 1.0 2.0 0.00 0.24 0.24 93 1011.1
20260503203003 58 248 1.0 3.0 0.00 0.24 0.24 93 1011.1
20260503201951 58 180 1.0 3.0 0.00 0.24 0.24 93 1011.2
20260503200951 58 135 1.0 3.0 0.00 0.24 0.24 93 1011.2
20260503195953 58 180 2.0 4.0 0.00 0.24 0.24 93 1011.1
20260503194953 58 225 2.0 5.0 0.00 0.24 0.24 93 1011.1
20260503194428 58 270 2.0 5.0 0.00 0.24 0.24 93 1011.2
20260503192948 58 45 2.0 4.0 0.00 0.24 0.24 93 1011.2
20260503191942 58 203 1.0 3.0 0.00 0.24 0.24 93 1011.2
20260503191423 58 158 2.0 4.0 0.00 0.24 0.24 93 1011.2
20260503185937 58 180 2.0 4.0 0.00 0.24 0.24 93 1011.1
20260503184934 58 113 3.0 6.0 0.00 0.24 0.24 93 1011.1
20260503184411 58 45 4.0 7.0 0.00 0.24 0.24 93 1011.0
20260503182934 58 68 2.0 7.0 0.00 0.24 0.24 92 1011.0
20260503180936 58 180 3.0 6.0 0.00 0.24 0.24 92 1010.5
20260503175930 58 180 3.0 4.0 0.00 0.24 0.24 92 1010.6
20260503174928 58 135 4.0 7.0 0.00 0.24 0.24 92 1010.6
20260503173929 58 203 3.0 8.0 0.02 0.24 0.24 92 1010.5
20260503173400 59 158 3.0 5.0 0.02 0.24 0.24 92 1010.5
20260503172402 59 225 3.0 3.0 0.02 0.24 0.24 92 1010.4
20260503170927 59 225 3.0 7.0 0.05 0.24 0.24 92 1010.4
20260503150919 60 180 4.0 10.0 0.03 0.03 0.06 84 1010.6